Location: *
(29.1167°S, 130.0000°E)
Time: 14:29:10
(UTC+00:00)

Meteor 2-10 - Pass Details

Date: 21 July 2019
Orbit: 738 x 868 km, 81.2° (Epoch: 22 August)

Event Time Altitude Azimuth Distance (km) Brightness Sun altitude
Rises 08:55:28 0° 5° (N) 3,409 7.6 -3.4°
Reaches altitude 10° 08:57:57 10° 9° (N) 2,467 6.8 -3.9°
Maximum altitude 09:03:24 56° 86° (E) 993 4.3 -5.1°
Drops below altitude 10° 09:08:45 10° 162° (SSE) 2,418 6.2 -6.2°
Sets 09:11:09 0° 166° (SSE) 3,335 7.0 -6.6°
